K0CVS Weather Reports


Display with metric or nautical units.
time (UTC)temp
F
wind
direction
speed
MPH
gust
MPH
rain 1hr
in
rain 24hr
in
rain mn
in
humidity
%
barometer
mb
20260906173903 98 217 0.0 1.0 0.00 0.00 0.00 44 1015.6
20260906173359 98 230 1.0 3.0 0.00 0.00 0.00 44 1015.6
20260906172858 99 217 0.0 1.0 0.00 0.00 0.00 44 1015.9
20260906172355 98 214 0.0 0.0 0.00 0.00 0.00 44 1015.9
20260906171855 98 193 1.0 2.0 0.00 0.00 0.00 43 1016.0
20260906171349 98 222 1.0 1.0 0.00 0.00 0.00 46 1016.0
20260906170845 98 221 0.0 1.0 0.00 0.00 0.00 46 1016.2
20260906170341 98 215 1.0 1.0 0.00 0.00 0.00 45 1016.2
20260906165837 98 204 0.0 0.0 0.00 0.00 0.00 46 1016.4
20260906165336 98 204 1.0 3.0 0.00 0.00 0.00 47 1016.4
20260906164831 98 261 2.0 3.0 0.00 0.00 0.00 47 1016.4
20260906164331 97 228 1.0 2.0 0.00 0.00 0.00 48 1016.4
20260906163827 96 214 0.0 2.0 0.00 0.00 0.00 49 1016.5
20260906163323 95 211 0.0 1.0 0.00 0.00 0.00 49 1016.5
20260906162820 96 210 0.0 2.0 0.00 0.00 0.00 49 1016.4
20260906162319 97 176 0.0 1.0 0.00 0.00 0.00 48 1016.4
20260906161815 96 223 0.0 0.0 0.00 0.00 0.00 50 1016.4
20260906161314 95 196 0.0 2.0 0.00 0.00 0.00 51 1016.5
20260906160813 95 175 1.0 2.0 0.00 0.00 0.00 51 1016.5
20260906160307 94 209 0.0 1.0 0.00 0.00 0.00 52 1016.4
20260906155805 94 227 0.0 2.0 0.00 0.00 0.00 52 1016.4
20260906155259 94 216 0.0 2.0 0.00 0.00 0.00 53 1016.3
20260906154755 94 205 1.0 1.0 0.00 0.00 0.00 52 1016.3
20260906154250 93 197 0.0 2.0 0.00 0.00 0.00 53 1016.3
20260906153749 92 197 0.0 2.0 0.00 0.00 0.00 54 1016.3
20260906153243 91 179 1.0 1.0 0.00 0.00 0.00 56 1016.1
20260906152739 90 213 1.0 2.0 0.00 0.00 0.00 57 1016.2
20260906152239 90 228 1.0 1.0 0.00 0.00 0.00 59 1016.2
20260906151738 89 210 1.0 1.0 0.00 0.00 0.00 60 1016.4
20260906151234 88 219 0.0 2.0 0.00 0.00 0.00 61 1016.2
20260906150729 88 231 0.0 1.0 0.00 0.00 0.00 62 1016.5
20260906150225 88 232 1.0 3.0 0.00 0.00 0.00 61 1016.3
20260906145723 88 224 0.0 1.0 0.00 0.00 0.00 62 1016.2
20260906145223 87 203 1.0 3.0 0.00 0.00 0.00 62 1016.4
20260906144718 87 208 0.0 1.0 0.00 0.00 0.00 63 1016.2
20260906144213 87 202 1.0 2.0 0.00 0.00 0.00 64 1016.4
20260906143712 86 200 0.0 2.0 0.00 0.00 0.00 64 1016.2
20260906143210 86 215 0.0 1.0 0.00 0.00 0.00 64 1016.4
20260906142709 86 164 1.0 2.0 0.00 0.00 0.00 65 1016.4
20260906142204 85 202 1.0 2.0 0.00 0.00 0.00 65 1016.2
20260906141703 85 179 0.0 1.0 0.00 0.00 0.00 65 1016.1
20260906141158 84 175 0.0 3.0 0.00 0.00 0.00 66 1016.1
20260906140657 84 211 0.0 1.0 0.00 0.00 0.00 67 1016.2
20260906140152 84 223 0.0 1.0 0.00 0.00 0.00 67 1016.1
20260906135649 83 211 0.0 0.0 0.00 0.00 0.00 68 1016.0
20260906135145 83 157 1.0 1.0 0.00 0.00 0.00 68 1016.2
20260906134641 83 206 1.0 2.0 0.00 0.00 0.00 68 1016.1
20260906134135 82 217 0.0 2.0 0.00 0.00 0.00 68 1016.1
20260906133631 82 210 1.0 1.0 0.00 0.00 0.00 69 1016.0
20260906133126 82 198 0.0 1.0 0.00 0.00 0.00 69 1016.0
20260906132627 81 200 0.0 1.0 0.00 0.00 0.00 69 1015.9
20260906132123 81 233 0.0 1.0 0.00 0.00 0.00 69 1015.8
20260906131618 81 210 0.0 1.0 0.00 0.00 0.00 70 1015.7
20260906131113 80 188 1.0 3.0 0.00 0.00 0.00 70 1015.7
20260906130608 80 215 0.0 0.0 0.00 0.00 0.00 71 1015.6
20260906130103 80 209 0.0 0.0 0.00 0.00 0.00 71 1015.7
20260906125601 80 210 0.0 0.0 0.00 0.00 0.00 71 1015.7
20260906125100 79 199 0.0 0.0 0.00 0.00 0.00 72 1015.7
20260906124556 79 224 0.0 0.0 0.00 0.00 0.00 72 1015.5
20260906124051 79 214 0.0 0.0 0.00 0.00 0.00 72 1015.4
20260906123550 79 219 0.0 0.0 0.00 0.00 0.00 72 1015.3
20260906123045 79 213 0.0 0.0 0.00 0.00 0.00 72 1015.3
20260906122544 79 220 0.0 0.0 0.00 0.00 0.00 72 1015.3
20260906122041 79 221 0.0 0.0 0.00 0.00 0.00 72 1015.2
20260906121536 79 218 0.0 0.0 0.00 0.00 0.00 71 1015.1
20260906121032 79 226 0.0 0.0 0.00 0.00 0.00 71 1015.1
20260906120527 79 205 0.0 1.0 0.00 0.00 0.00 71 1015.2
20260906120025 79 210 0.0 0.0 0.00 0.00 0.00 71 1015.1
20260906115524 79 220 0.0 0.0 0.00 0.00 0.00 71 1015.1
20260906115019 79 203 0.0 0.0 0.00 0.00 0.00 72 1015.1
20260906114514 79 209 0.0 0.0 0.00 0.00 0.00 72 1015.0
20260906114010 79 222 0.0 0.0 0.00 0.00 0.00 72 1014.9
20260906113508 78 184 0.0 0.0 0.00 0.00 0.00 72 1015.2
20260906113004 78 213 0.0 0.0 0.00 0.00 0.00 73 1015.0
20260906112459 78 224 0.0 0.0 0.00 0.00 0.00 73 1014.9
20260906111955 78 216 0.0 0.0 0.00 0.00 0.00 73 1014.8
20260906111454 78 224 0.0 0.0 0.00 0.00 0.00 73 1014.8
20260906110949 78 230 0.0 0.0 0.00 0.00 0.00 73 1014.8
20260906110444 78 239 0.0 0.0 0.00 0.00 0.00 73 1014.9
20260906105944 78 226 0.0 0.0 0.00 0.00 0.00 73 1015.0
20260906105439 78 225 0.0 0.0 0.00 0.00 0.00 73 1014.7
20260906104936 78 226 0.0 0.0 0.00 0.00 0.00 73 1015.0
20260906104434 78 224 0.0 0.0 0.00 0.00 0.00 73 1014.7
20260906103933 78 224 0.0 0.0 0.00 0.00 0.00 73 1014.8
20260906103431 78 223 0.0 0.0 0.00 0.00 0.00 73 1014.7
20260906102927 78 226 0.0 0.0 0.00 0.00 0.00 73 1014.6
20260906102426 78 226 0.0 0.0 0.00 0.00 0.00 73 1014.7
20260906101921 79 226 0.0 0.0 0.00 0.00 0.00 72 1014.8
20260906101417 79 235 0.0 0.0 0.00 0.00 0.00 72 1014.8
20260906100912 79 237 0.0 0.0 0.00 0.00 0.00 72 1014.9
20260906100412 79 226 0.0 0.0 0.00 0.00 0.00 72 1014.6
20260906095906 79 218 0.0 0.0 0.00 0.00 0.00 71 1014.7
20260906095402 79 239 0.0 0.0 0.00 0.00 0.00 71 1014.6
20260906094901 79 224 0.0 0.0 0.00 0.00 0.00 71 1014.5
20260906094357 79 216 0.0 0.0 0.00 0.00 0.00 70 1014.6
20260906093853 79 223 0.0 0.0 0.00 0.00 0.00 70 1014.6
20260906093349 79 229 0.0 0.0 0.00 0.00 0.00 70 1014.5
20260906092848 79 224 0.0 0.0 0.00 0.00 0.00 70 1014.5
20260906092343 79 223 0.0 0.0 0.00 0.00 0.00 71 1014.4
20260906091839 79 219 0.0 0.0 0.00 0.00 0.00 71 1014.6
20260906091335 79 223 0.0 0.0 0.00 0.00 0.00 71 1014.5
20260906090831 79 240 0.0 0.0 0.00 0.00 0.00 72 1014.5
20260906090330 79 218 0.0 0.0 0.00 0.00 0.00 72 1014.3
20260906085830 79 217 0.0 0.0 0.00 0.00 0.00 71 1014.5
20260906085329 80 217 0.0 0.0 0.00 0.00 0.00 71 1014.3
20260906084825 80 214 0.0 0.0 0.00 0.00 0.00 71 1014.4
20260906084324 80 222 0.0 0.0 0.00 0.00 0.00 71 1014.3
20260906083819 80 220 0.0 0.0 0.00 0.00 0.00 70 1014.4
20260906083314 80 219 0.0 0.0 0.00 0.00 0.00 70 1014.1
20260906082809 80 213 0.0 0.0 0.00 0.00 0.00 70 1014.2
20260906082306 80 217 0.0 0.0 0.00 0.00 0.00 69 1014.3
20260906081800 80 216 0.0 0.0 0.00 0.00 0.00 69 1014.1
20260906081255 81 219 0.0 0.0 0.00 0.00 0.00 68 1014.1
20260906080752 81 229 0.0 0.0 0.00 0.00 0.00 68 1014.4
20260906080248 81 219 0.0 0.0 0.00 0.00 0.00 67 1014.3
20260906075747 81 217 0.0 0.0 0.00 0.00 0.00 67 1014.2
20260906075247 81 222 0.0 0.0 0.00 0.00 0.00 67 1014.1
20260906074743 81 222 0.0 0.0 0.00 0.00 0.00 67 1014.3
20260906074242 81 212 0.0 0.0 0.00 0.00 0.00 67 1014.3
20260906073741 81 218 0.0 0.0 0.00 0.00 0.00 67 1014.0
20260906073236 81 214 0.0 0.0 0.00 0.00 0.00 67 1014.1
20260906072732 82 214 0.0 0.0 0.00 0.00 0.00 66 1014.2
20260906072228 82 211 0.0 0.0 0.00 0.00 0.00 66 1014.1
20260906071724 82 240 0.0 0.0 0.00 0.00 0.00 66 1014.1
20260906071224 82 213 0.0 0.0 0.00 0.00 0.00 65 1014.2
20260906070720 82 212 0.0 0.0 0.00 0.00 0.00 65 1014.1
20260906070216 82 212 0.0 0.0 0.00 0.00 0.00 65 1014.1
20260906065715 83 215 0.0 0.0 0.00 0.00 0.00 64 1014.3
20260906065210 83 216 0.0 0.0 0.00 0.00 0.00 63 1014.3
20260906064706 83 212 0.0 0.0 0.00 0.00 0.00 62 1014.2
20260906064201 84 225 0.0 0.0 0.00 0.00 0.00 62 1014.4
20260906063656 84 215 0.0 0.0 0.00 0.00 0.00 61 1014.3
20260906063152 84 209 0.0 0.0 0.00 0.00 0.00 60 1014.3
20260906062648 84 214 0.0 0.0 0.00 0.00 0.00 60 1014.5
20260906062146 84 231 0.0 0.0 0.00 0.00 0.00 60 1014.7
20260906061643 84 211 0.0 0.0 0.00 0.00 0.00 60 1014.6
20260906061142 84 214 0.0 0.0 0.00 0.00 0.00 59 1014.5
20260906060639 84 228 0.0 0.0 0.00 0.00 0.00 59 1014.5
20260906060136 84 211 0.0 0.0 0.00 0.00 0.00 59 1014.5
20260906055631 85 216 0.0 0.0 0.00 0.00 0.00 59 1014.7
20260906055126 85 214 0.0 0.0 0.00 0.00 0.00 59 1014.6
20260906054621 85 210 0.0 0.0 0.00 0.00 0.00 59 1014.5
20260906054117 85 208 0.0 0.0 0.00 0.00 0.00 59 1014.6
20260906053613 85 211 0.0 0.0 0.00 0.00 0.00 59 1014.7
20260906053108 85 211 0.0 0.0 0.00 0.00 0.00 58 1014.5
20260906052604 85 208 0.0 0.0 0.00 0.00 0.00 58 1014.7
20260906052101 85 207 0.0 0.0 0.00 0.00 0.00 58 1014.6
20260906051556 86 212 0.0 0.0 0.00 0.00 0.00 58 1014.9
20260906051051 86 207 0.0 0.0 0.00 0.00 0.00 58 1014.7
20260906050546 86 209 0.0 0.0 0.00 0.00 0.00 58 1014.6
20260906050041 86 209 0.0 0.0 0.00 0.00 0.00 59 1014.5
20260906045539 86 219 0.0 0.0 0.00 0.00 0.00 59 1014.7
20260906045036 86 213 0.0 0.0 0.00 0.00 0.00 59 1014.7
20260906044531 85 204 0.0 0.0 0.00 0.00 0.00 60 1014.7
20260906044026 85 211 0.0 0.0 0.00 0.00 0.00 61 1014.6
20260906043522 85 203 0.0 0.0 0.00 0.00 0.00 61 1014.7
20260906043018 86 215 0.0 0.0 0.00 0.00 0.00 61 1014.8
20260906042517 86 216 0.0 0.0 0.00 0.00 0.00 60 1014.5
20260906042017 86 211 0.0 0.0 0.00 0.00 0.00 61 1014.5
20260906041513 86 208 0.0 0.0 0.00 0.00 0.00 60 1014.5
20260906041013 86 208 0.0 0.0 0.00 0.00 0.00 60 1014.4
20260906040508 86 212 0.0 0.0 0.00 0.00 0.00 59 1014.4
20260906040003 87 218 0.0 0.0 0.00 0.00 0.00 59 1014.3
20260906035458 87 209 0.0 0.0 0.00 0.00 0.00 58 1014.4
20260906034954 87 212 0.0 0.0 0.00 0.00 0.00 58 1014.5
20260906034454 87 208 0.0 0.0 0.00 0.00 0.00 57 1014.2
20260906033949 87 205 0.0 0.0 0.00 0.00 0.00 57 1014.2
20260906033444 88 208 0.0 0.0 0.00 0.00 0.00 57 1014.2
20260906032940 88 208 0.0 0.0 0.00 0.00 0.00 57 1014.3
20260906032437 88 214 0.0 0.0 0.00 0.00 0.00 57 1014.2
20260906031936 88 206 0.0 0.0 0.00 0.00 0.00 57 1014.2
20260906031432 88 208 0.0 0.0 0.00 0.00 0.00 57 1014.1
20260906030927 88 212 0.0 0.0 0.00 0.00 0.00 57 1014.1
20260906030422 88 210 0.0 0.0 0.00 0.00 0.00 57 1014.1
20260906025922 88 212 0.0 0.0 0.00 0.00 0.00 56 1014.0
20260906025416 89 208 0.0 0.0 0.00 0.00 0.00 56 1013.8
20260906024915 89 206 0.0 0.0 0.00 0.00 0.00 56 1013.7
20260906024415 89 209 0.0 0.0 0.00 0.00 0.00 56 1013.7
20260906023910 89 207 0.0 0.0 0.00 0.00 0.00 56 1013.5
20260906023406 89 214 0.0 0.0 0.00 0.00 0.00 56 1013.7
20260906022901 89 217 0.0 0.0 0.00 0.00 0.00 55 1013.7
20260906022401 89 214 0.0 0.0 0.00 0.00 0.00 55 1013.2
20260906021857 90 215 0.0 0.0 0.00 0.00 0.00 55 1013.5
20260906021356 90 213 0.0 0.0 0.00 0.00 0.00 54 1013.2
20260906020851 90 207 0.0 0.0 0.00 0.00 0.00 54 1013.2
20260906020345 90 209 0.0 0.0 0.00 0.00 0.00 54 1013.2
20260906015840 90 206 0.0 0.0 0.00 0.00 0.00 54 1013.2
20260906015339 90 210 0.0 0.0 0.00 0.00 0.00 54 1013.1
20260906014838 91 213 0.0 0.0 0.00 0.00 0.00 54 1013.0
20260906014333 91 203 0.0 0.0 0.00 0.00 0.00 53 1012.8
20260906013830 91 200 0.0 0.0 0.00 0.00 0.00 53 1012.9
20260906013325 91 216 0.0 0.0 0.00 0.00 0.00 53 1012.7
20260906012821 91 224 0.0 0.0 0.00 0.00 0.00 53 1012.8
20260906012320 91 213 0.0 0.0 0.00 0.00 0.00 52 1012.8
20260906011815 91 220 0.0 0.0 0.00 0.00 0.00 52 1012.7
20260906011315 91 254 0.0 0.0 0.00 0.00 0.00 52 1012.8
20260906010811 92 222 0.0 0.0 0.00 0.00 0.00 51 1012.6
20260906010307 92 213 0.0 0.0 0.00 0.00 0.00 51 1012.7
20260906005802 92 217 0.0 0.0 0.00 0.00 0.00 50 1012.7
20260906005301 92 215 0.0 0.0 0.00 0.00 0.00 50 1012.7
20260906004800 93 211 0.0 0.0 0.00 0.00 0.00 50 1012.8
20260906004256 93 241 0.0 0.0 0.00 0.00 0.00 50 1012.7
20260906003755 93 206 0.0 0.0 0.00 0.00 0.00 50 1012.5
20260906003251 93 213 0.0 0.0 0.00 0.00 0.00 49 1012.6
20260906002746 93 221 0.0 0.0 0.00 0.00 0.00 49 1012.5
20260906002240 94 208 0.0 0.0 0.00 0.00 0.00 49 1012.7
20260906001736 94 241 0.0 0.0 0.00 0.00 0.00 49 1012.4
20260906001230 94 212 0.0 1.0 0.00 0.00 0.00 48 1012.7
20260906000726 94 210 0.0 1.0 0.00 0.00 0.00 48 1012.4
20260906000221 95 224 0.0 1.0 0.00 0.00 0.00 47 1012.6
20260905235721 95 203 0.0 1.0 0.00 0.00 0.00 47 1012.6
20260905235215 95 196 1.0 1.0 0.00 0.00 0.00 46 1012.6
20260905234711 96 218 0.0 0.0 0.00 0.00 0.00 46 1012.6
20260905234206 96 194 0.0 1.0 0.00 0.00 0.00 45 1012.4
20260905233701 96 263 0.0 1.0 0.00 0.00 0.00 45 1012.3
20260905233201 96 225 1.0 2.0 0.00 0.00 0.00 44 1012.4
20260905232656 97 211 0.0 1.0 0.00 0.00 0.00 44 1012.3
20260905232151 97 213 0.0 2.0 0.00 0.00 0.00 44 1012.5
20260905231647 97 220 0.0 1.0 0.00 0.00 0.00 44 1012.3
20260905231143 97 179 3.0 4.0 0.00 0.00 0.00 43 1012.4
20260905230639 97 240 0.0 2.0 0.00 0.00 0.00 43 1012.4
20260905230136 97 232 0.0 1.0 0.00 0.00 0.00 43 1012.4
20260905225637 98 164 0.0 1.0 0.00 0.00 0.00 43 1012.6
20260905225137 98 214 0.0 0.0 0.00 0.00 0.00 43 1012.3
20260905224636 98 204 0.0 0.0 0.00 0.00 0.00 43 1012.4
20260905224136 98 218 2.0 3.0 0.00 0.00 0.00 42 1012.3
20260905223633 98 235 1.0 4.0 0.00 0.00 0.00 42 1012.5
20260905223129 99 209 1.0 2.0 0.00 0.00 0.00 41 1012.4
20260905222624 99 209 0.0 2.0 0.00 0.00 0.00 38 1012.3
20260905222119 99 192 2.0 2.0 0.00 0.00 0.00 38 1012.4
20260905221615 99 198 2.0 2.0 0.00 0.00 0.00 39 1012.6
20260905221112 99 194 0.0 0.0 0.00 0.00 0.00 41 1012.4
20260905220607 100 272 1.0 2.0 0.00 0.00 0.00 40 1012.6
20260905220103 100 234 1.0 3.0 0.00 0.00 0.00 39 1012.7
20260905215602 100 192 1.0 2.0 0.00 0.00 0.00 37 1012.6
20260905215058 100 223 0.0 2.0 0.00 0.00 0.00 36 1012.8
20260905214554 101 197 0.0 2.0 0.00 0.00 0.00 35 1012.8
20260905214049 101 193 3.0 4.0 0.00 0.00 0.00 33 1012.8
20260905213544 102 137 2.0 7.0 0.00 0.00 0.00 34 1012.7
20260905213040 102 276 1.0 2.0 0.00 0.00 0.00 34 1012.8
20260905212540 102 221 1.0 1.0 0.00 0.00 0.00 34 1013.0
20260905212039 102 214 0.0 0.0 0.00 0.00 0.00 34 1013.1
20260905211535 102 238 0.0 1.0 0.00 0.00 0.00 34 1013.1
20260905211030 102 311 0.0 1.0 0.00 0.00 0.00 34 1013.0
20260905210526 102 216 0.0 3.0 0.00 0.00 0.00 33 1013.1
20260905210026 102 190 0.0 1.0 0.00 0.00 0.00 33 1013.4
20260905205525 102 184 0.0 2.0 0.00 0.00 0.00 33 1013.4
20260905205024 102 222 0.0 0.0 0.00 0.00 0.00 34 1013.4
20260905204519 102 255 0.0 2.0 0.00 0.00 0.00 32 1013.4
20260905204014 102 242 0.0 1.0 0.00 0.00 0.00 34 1013.5
20260905203509 102 169 3.0 4.0 0.00 0.00 0.00 34 1013.6
20260905203004 101 203 0.0 2.0 0.00 0.00 0.00 36 1013.7
20260905202459 101 147 2.0 2.0 0.00 0.00 0.00 35 1013.6
20260905201955 100 143 1.0 2.0 0.00 0.00 0.00 37 1013.8
20260905201450 100 188 1.0 2.0 0.00 0.00 0.00 37 1013.9
20260905200949 100 211 0.0 1.0 0.00 0.00 0.00 38 1014.0
20260905200446 100 171 1.0 1.0 0.00 0.00 0.00 37 1014.0
20260905195944 101 226 1.0 1.0 0.00 0.00 0.00 36 1014.0
20260905195439 101 203 0.0 3.0 0.00 0.00 0.00 37 1014.2
20260905194935 101 188 1.0 2.0 0.00 0.00 0.00 36 1014.1
20260905194435 101 182 1.0 4.0 0.00 0.00 0.00 37 1014.2
20260905193935 102 233 0.0 2.0 0.00 0.00 0.00 35 1014.2
20260905193430 102 234 1.0 2.0 0.00 0.00 0.00 35 1014.2
20260905192930 102 217 2.0 2.0 0.00 0.00 0.00 35 1014.3
20260905192425 103 231 1.0 2.0 0.00 0.00 0.00 34 1014.3
20260905191920 104 202 0.0 1.0 0.00 0.00 0.00 34 1014.3
20260905191420 103 268 1.0 1.0 0.00 0.00 0.00 35 1014.3
20260905190920 102 233 0.0 1.0 0.00 0.00 0.00 35 1014.4
20260905190417 102 224 0.0 2.0 0.00 0.00 0.00 35 1014.5
20260905185916 103 195 0.0 1.0 0.00 0.00 0.00 36 1014.7
20260905185412 103 215 1.0 1.0 0.00 0.00 0.00 35 1014.6
20260905184911 102 259 1.0 4.0 0.00 0.00 0.00 34 1014.6
20260905184411 102 218 0.0 2.0 0.00 0.00 0.00 36 1014.7
20260905183909 102 254 0.0 1.0 0.00 0.00 0.00 36 1014.7
20260905183404 101 239 1.0 3.0 0.00 0.00 0.00 37 1014.8
20260905182859 100 218 0.0 1.0 0.00 0.00 0.00 38 1015.0
20260905182358 101 140 2.0 2.0 0.00 0.00 0.00 37 1015.0
20260905181854 101 257 1.0 3.0 0.00 0.00 0.00 37 1015.0
20260905181354 102 227 1.0 2.0 0.00 0.00 0.00 37 1015.3
20260905180853 102 211 0.0 1.0 0.00 0.00 0.00 37 1015.3
20260905180349 102 220 0.0 3.0 0.00 0.00 0.00 36 1015.2
20260905175844 100 229 0.0 1.0 0.00 0.00 0.00 37 1015.3
20260905175343 100 194 2.0 2.0 0.00 0.00 0.00 38 1015.4
20260905174839 102 226 0.0 4.0 0.00 0.00 0.00 38 1015.4
20260905174334 102 211 0.0 1.0 0.00 0.00 0.00 39 1015.5